Weather in Kroshnozero

Russia / Republic of Karelia     61°37′52″N   33°10′50″E
temp.,
°C
wind,
m/s
gust,
m/s
humid.,
%
clouds,
%
prec.,
mm/h
press.,
hPa
HPBL,
m
1 march, mon
mon100:000wsw379693 0.0 1016346
03:000wsw5109596 0.0 1016533
06:00+1wsw41099100 0.0 1013436
09:00+1w41197100 0.0 1012538
12:00+1w51198100 0.0 1011666
15:00+2w51297100 0.0 1009667
18:00+2w51298100 0.1 1007778
21:00+1w5138999 0.1 1006780
2 march, tue
tue200:000wnw4138993 0.1 1005824
03:00−2wnw4138860 0.1 1006639
06:00−3w413890 0.0 1005572
09:00−3wnw4139117 0.0 1006678
12:00−1nw5108395 0.1 10061069
15:00−1nnw5127267 0.1 10091604
18:00−4nw3138159 0.0 1011631
21:00−6wnw388838 0.0 1013189
3 march, wed
wed300:00−6w399226 0.0 1013214
03:00−5w3119423 0.0 1013389
06:00−5wnw3129340 0.0 1011467
09:00−4wnw4119265 0.0 1011517
12:00−2wnw488895 0.0 1010645
15:00−1w498493 0.0 1008722
18:00−1wsw3892100 0.0 1004589
21:00−1ssw51197100 2.4 999773
4 march, thu
thu400:000w61396100 1.7 9941102
03:00−3nnw51288100 1.9 994658
06:00−4nnw379699 0.8 995443
09:00−6n499499 0.8 997489
12:00−5n378999 0.0 998605
15:00−5n478599 0.1 1000876
18:00−6nnw3990100 0.1 1001383
21:00−10nw279466 0.1 1003156
5 march, fri
fri500:00−10nw279676 0.0 1004206
03:00−10nw269687 0.1 1006204
06:00−11nnw1297100 0.4 100756
09:00−11nnw129691 0.4 1008129
12:00−8nne1288100 0.2 1010441
15:00−7ne1288100 0.4 1012502
18:00−9nne2396100 0.3 1013125
21:00−14nne129588 0.5 101520